sat.trackr.live / text

‹ back to catalog

STARLINK-5180

NORAD 55318 · 2023-010BB

PAYLOAD ACTIVE UNKNOWN

§ Identity

Operator
Country
US
Launch date
2023-01-19
Launch site
AFWTR
Launch vehicle
Mass (kg)
RCS (m²)

Purposes: comms

External: N2YO · Heavens-Above · Gunter

§ Orbital elements

Epoch: 2026-05-25T03:16:04.230048Z

Period
96.11 min
Inclination
69.9987°
Eccentricity
0.0003388
Mean motion
14.98330526 rev/d
Perigee alt
569.7 km
Apogee alt
574.4 km
Semi-major
6,950.2 km
B*
3.9470e-5
RAAN
171.6891°
Arg perigee
268.0968°
Mean anomaly
91.9803°
Rev number
18,609

§ Raw data

STARLINK-51801 55318U 23010BB  26145.13616007  .00000378  00000+0  39470-4 0  99942 55318  69.9987 171.6891 0003388 268.0968  91.9803 14.98330526186091

JSON: /api/v1/satellites/55318 · /tle

For live sub-satellite position, see the globe view (requires WebGL).

§ Visibility from observer

Set your observer location to see the next 7 days of passes ≥ 10°. The values pass through the URL so the page stays shareable.

No JS? Fill the form by hand. The geolocation button needs JavaScript.